CW6451 Weather Reports


Display with metric or nautical units.
time (UTC)temp
F
wind
direction
speed
MPH
gust
MPH
rain 1hr
in
rain 24hr
in
rain mn
in
humidity
%
barometer
mb
20260904060050 69 0 0.0 1.0 0.00 0.29 0.00 98 1011.0
20260904054544 69 0 0.0 1.0 0.00 0.29 0.00 98 1011.2
20260904053048 70 0 0.0 1.0 0.00 0.29 0.00 98 1011.5
20260904051547 69 0 0.0 2.0 0.00 0.29 0.00 98 1011.6
20260904050048 69 0 0.0 1.0 0.00 0.29 0.00 98 1011.7
20260904044552 69 0 0.0 2.0 0.00 0.29 0.00 98 1011.9
20260904043105 69 205 0.0 2.0 0.00 0.29 0.00 98 1012.2
20260904041550 69 0 0.0 2.0 0.00 0.29 0.00 97 1012.3
20260904040055 69 0 0.0 0.0 0.00 0.29 0.00 97 1012.2
20260904034546 70 0 0.0 0.0 0.00 0.29 0.29 97 1012.3
20260904033047 70 0 0.0 0.0 0.00 0.29 0.29 97 1012.3
20260904031544 70 0 0.0 2.0 0.00 0.29 0.29 97 1012.3
20260904030049 70 0 0.0 2.0 0.00 0.29 0.29 97 1012.1
20260904024549 70 0 0.0 3.0 0.00 0.29 0.29 97 1012.6
20260904023055 71 243 0.0 2.0 0.00 0.29 0.29 97 1012.7
20260904021556 71 0 0.0 1.0 0.00 0.29 0.29 96 1012.8
20260904020050 71 0 0.0 0.0 0.00 0.29 0.29 96 1012.8
20260904014551 71 0 0.0 1.0 0.00 0.29 0.29 96 1012.9
20260904013047 71 0 0.0 2.0 0.00 0.29 0.29 96 1013.2
20260904011555 72 0 0.0 2.0 0.00 0.29 0.29 96 1013.3
20260904010046 72 0 0.0 2.0 0.00 0.29 0.29 95 1013.0
20260904004551 72 0 0.0 2.0 0.00 0.29 0.29 96 1012.9
20260904003045 72 0 0.0 3.0 0.00 0.29 0.29 95 1012.8
20260904001544 72 0 1.0 4.0 0.00 0.29 0.29 94 1012.7
20260904000051 72 237 2.0 4.0 0.00 0.29 0.29 93 1012.4
20260903234546 73 229 0.0 5.0 0.00 0.29 0.29 92 1012.5
20260903233047 73 168 2.0 5.0 0.00 0.29 0.29 92 1012.2
20260903231552 74 0 1.0 4.0 0.00 0.29 0.29 90 1012.1
20260903230047 75 0 2.0 7.0 0.00 0.29 0.29 88 1011.9
20260903224610 76 229 0.0 4.0 0.00 0.29 0.29 86 1012.1
20260903223051 77 184 1.0 5.0 0.00 0.29 0.29 86 1012.2
20260903221548 77 0 0.0 4.0 0.00 0.29 0.29 86 1012.4
20260903220059 78 227 0.0 6.0 0.00 0.29 0.29 84 1012.5
20260903214547 78 267 1.0 5.0 0.00 0.29 0.29 85 1012.4
20260903213049 78 181 0.0 7.0 0.00 0.29 0.29 85 1012.1
20260903211547 78 194 2.0 7.0 0.00 0.29 0.29 84 1012.3
20260903210052 78 257 2.0 6.0 0.00 0.29 0.29 85 1012.4
20260903204548 76 182 2.0 7.0 0.00 0.29 0.29 87 1012.2
20260903203046 78 213 2.0 7.0 0.00 0.29 0.29 83 1012.5
20260903201546 78 224 1.0 4.0 0.00 0.29 0.29 87 1012.5
20260903200058 78 0 0.0 7.0 0.00 0.29 0.29 87 1012.5
20260903194552 77 201 3.0 7.0 0.00 0.29 0.29 86 1012.9
20260903193053 77 250 1.0 5.0 0.00 0.29 0.29 88 1013.1
20260903191545 77 0 1.0 6.0 0.00 0.29 0.29 86 1013.2
20260903190054 78 0 1.0 7.0 0.00 0.29 0.29 85 1013.2
20260903184547 78 126 1.0 8.0 0.00 0.29 0.29 86 1013.2
20260903183046 79 190 1.0 9.0 0.00 0.29 0.29 87 1013.3
20260903181544 77 214 3.0 10.0 0.00 0.29 0.29 87 1013.3
20260903180053 78 236 3.0 8.0 0.00 0.29 0.29 86 1013.5
20260903174547 79 191 3.0 10.0 0.00 0.29 0.29 86 1013.5
20260903173045 78 227 2.0 8.0 0.00 0.29 0.29 89 1013.4
20260903171602 77 0 3.0 9.0 0.00 0.29 0.29 90 1013.5
20260903170046 76 255 2.0 10.0 0.00 0.29 0.29 94 1013.7
20260903164554 75 217 3.0 8.0 0.00 0.29 0.29 95 1013.7
20260903163043 74 278 3.0 8.0 0.00 0.29 0.29 97 1013.6
20260903161549 74 222 4.0 10.0 0.00 0.29 0.29 98 1013.7
20260903160045 74 217 2.0 8.0 0.00 0.29 0.29 99 1013.8
20260903154545 73 223 1.0 3.0 0.00 0.29 0.29 100 1013.7
20260903153049 73 218 1.0 4.0 0.00 0.29 0.29 100 1013.9
20260903151544 72 261 1.0 5.0 0.00 0.29 0.29 100 1014.2
20260903144549 71 0 0.0 6.0 0.01 0.29 0.29 100 1014.6
20260903143102 71 279 0.0 4.0 0.01 0.29 0.29 100 1014.9
20260903141546 71 273 1.0 4.0 0.01 0.29 0.29 100 1015.1
20260903140055 71 275 1.0 6.0 0.02 0.28 0.28 100 1015.5
20260903134553 71 209 1.0 4.0 0.02 0.28 0.28 100 1015.4
20260903133047 71 263 0.0 3.0 0.02 0.28 0.28 100 1015.4
20260903131551 70 205 0.0 4.0 0.02 0.28 0.28 100 1015.5
20260903130057 70 198 1.0 4.0 0.00 0.26 0.26 100 1015.4
20260903124550 70 182 0.0 5.0 0.00 0.26 0.26 100 1015.3
20260903123046 70 227 1.0 7.0 0.01 0.26 0.26 100 1015.6
20260903121545 70 261 2.0 5.0 0.02 0.26 0.26 100 1015.8
20260903120050 70 0 2.0 10.0 0.02 0.26 0.26 100 1015.8
20260903114548 70 219 2.0 8.0 0.03 0.26 0.26 100 1015.9
20260903113046 69 263 1.0 4.0 0.02 0.25 0.25 100 1016.0
20260903111546 69 200 1.0 6.0 0.01 0.24 0.24 100 1015.9
20260903110047 69 175 2.0 9.0 0.02 0.24 0.24 99 1015.9
20260903104550 69 174 2.0 9.0 0.02 0.23 0.23 99 1015.9
20260903103048 68 126 2.0 7.0 0.06 0.23 0.23 99 1015.6
20260903101546 68 138 1.0 5.0 0.11 0.23 0.23 99 1015.6
20260903100045 67 139 1.0 5.0 0.16 0.22 0.22 99 1015.7
20260903094549 67 178 1.0 6.0 0.19 0.21 0.21 99 1015.7
20260903093054 67 203 2.0 7.0 0.15 0.17 0.17 98 1015.6
20260903091545 67 141 2.0 8.0 0.09 0.11 0.11 98 1015.8
20260903090044 67 0 1.0 6.0 0.04 0.06 0.06 98 1015.9
20260903084548 66 144 1.0 6.0 0.00 0.02 0.02 98 1016.0
20260903083046 66 126 1.0 6.0 0.01 0.02 0.02 97 1016.1
20260903081547 66 113 0.0 4.0 0.01 0.02 0.02 97 1016.2
20260903080054 65 150 1.0 4.0 0.01 0.02 0.02 96 1016.1
20260903074547 65 0 1.0 5.0 0.02 0.02 0.02 96 1016.6
20260903073057 65 0 0.0 6.0 0.01 0.01 0.01 95 1016.8
20260903071553 65 0 0.0 5.0 0.01 0.01 0.01 94 1017.0
20260903070047 66 0 0.0 5.0 0.01 0.01 0.01 94 1017.4
20260903064545 66 133 0.0 4.0 0.00 0.00 0.00 93 1017.6
20260903063053 66 160 0.0 2.0 0.00 0.00 0.00 91 1017.8
20260903061550 66 0 0.0 3.0 0.00 0.00 0.00 90 1017.9